[[{"header":{"parameterUnit":"m.s-1","parameterCategory":1,"la1":30.2991,"la2":30.254,"lo1":-89.0895,"lo2":-89.0444,"dy":0.0017,"dx":0.0017,"nx":28,"ny":28,"refTime":"2024-03-10T03:00:00:Z","depth":0,"parameterNumber":2,"parameterNumberName":"U-component_of_WINDS"},"data":[0,0,0,0,0,0,0,0,0,0,0,0,0,0,0,0,0,0,0,0,0,0,0,0,0,0,0,0,0,0,0,0,0,0,0,0,0,0,0,0,0,0,0,0,0,0,0,0,0,0,0,0,0,0,0,0,0,0,1.1124,1.1125,0,1.1168,1.1168,1.1169,1.1187,1.1187,1.1187,1.1187,1.1232,1.1233,1.1234,0,0,0,0,0,0,0,0,0,0,0,0,0,1.106,1.1061,1.1124,1.1125,1.1125,1.1167,1.1168,1.1169,1.1187,1.1187,1.1187,1.1187,1.1231,1.1233,1.1234,0,0,0,0,0,0,0,0,0,0,0,0,0,1.1094,1.1061,1.1124,1.114,1.1141,1.1167,1.1168,1.1169,1.1187,1.1187,1.1187,1.1187,1.1231,1.1233,1.1234,1.1248,0,0,1.124,1.1241,0,0,0,0,0,0,0,0,1.1092,1.1096,1.1137,1.1139,1.1141,1.1172,1.1162,1.1196,1.1187,1.117,1.1187,1.1187,1.1212,1.1215,1.1224,1.125,1.1252,1.124,1.1241,1.1242,1.1243,0,0,0,0,0,0,0,1.109,1.1095,1.1141,1.1137,1.114,1.1145,1.115,1.1168,1.1191,1.1171,1.1173,1.1178,1.1213,1.1222,1.1225,1.1253,1.124,1.1242,1.1243,1.1244,1.1296,1.1296,0,0,0,0,0,0,1.1085,1.1093,1.114,1.1143,1.1116,1.1146,1.1152,1.1162,1.1191,1.1195,1.1178,1.1178,1.1219,1.1223,1.1226,1.1246,1.1242,1.1244,1.1245,1.1296,1.1296,1.1296,0,0,0,0,0,0,1.1083,1.1089,1.1138,1.1118,1.1125,1.1148,1.1159,1.1163,1.1172,1.1196,1.12,1.1182,1.1219,1.1224,1.1243,1.1248,1.1245,1.1247,1.1296,1.1296,1.1296,1.1284,0,0,0,0,0,0,1.1081,1.1088,1.1093,1.1118,1.1126,1.1154,1.1159,1.1164,1.1175,1.1176,1.1201,1.1205,1.1219,1.124,1.1245,1.125,1.1248,1.1295,1.1296,1.1296,1.1284,1.1284,1.1284,0,0,0,0,0,1.1079,1.1087,1.1093,1.1099,1.1132,1.1154,1.1158,1.1174,1.1175,1.1181,1.1197,1.1204,1.1247,1.1242,1.1248,1.1254,1.1295,1.1296,1.1296,1.1284,1.1284,1.1284,0,0,0,0,0,0,1.1062,1.1091,1.1097,1.1114,1.1131,1.1157,1.1164,1.1173,1.119,1.119,1.1209,1.1215,1.1233,1.1245,1.124,1.127,1.1272,1.1273,1.1261,1.1261,1.1261,1.1257,1.125,0,0,0,0,0,1.106,1.1074,1.1099,1.1112,1.112,1.1141,1.1151,1.1161,1.118,1.1187,1.1204,1.1223,1.124,1.1251,1.1269,1.1287,1.1293,1.1294,1.1294,1.1293,1.1294,1.1307,1.1308,1.1298,1.1298,1.1298,0,0,1.1056,1.1074,1.1082,1.1109,1.1124,1.1139,1.1147,1.1162,1.1174,1.119,1.1209,1.1223,1.1245,1.1264,1.1273,1.1275,1.1299,1.1294,1.1294,1.1295,1.1307,1.1308,1.1309,1.1299,1.1299,1.1298,0,0,1.1057,1.1072,1.1085,1.11,1.1122,1.1136,1.1139,1.1164,1.1173,1.1194,1.1206,1.1221,1.1251,1.1266,1.1278,1.1288,1.1296,1.1293,1.1292,1.1304,1.1305,1.1305,1.131,1.1311,1.1294,1.1294,1.1294,0,1.105,1.1073,1.109,1.1106,1.1118,1.1134,1.1147,1.1161,1.1188,1.1196,1.1198,1.1237,1.1252,1.1276,1.1279,1.1288,1.1293,1.129,1.1303,1.1304,1.1305,1.131,1.1311,1.1294,1.1294,1.1294,1.1294,0,1.1064,1.108,1.1088,1.1114,1.1127,1.1141,1.1162,1.1173,1.1184,1.1198,1.1219,1.1239,1.1261,1.1268,1.1278,1.1294,1.1295,1.1299,1.1301,1.1305,1.131,1.1312,1.1293,1.1293,1.1293,1.1294,0,0,1.1053,1.109,1.1093,1.1106,1.1133,1.1146,1.1162,1.1185,1.1195,1.1213,1.1228,1.1254,1.1259,1.1273,1.1285,1.1295,1.1304,1.1299,1.13,1.13,1.1324,1.1321,1.1322,1.131,1.131,1.131,1.1323,0,1.1059,1.1088,1.1105,1.1127,1.1143,1.116,1.1174,1.1193,1.1207,1.1224,1.124,1.1258,1.1263,1.1272,1.1283,1.13,1.1309,1.1299,1.1324,1.1325,1.1318,1.1325,1.132,1.1331,1.1325,1.1325,1.1325,0,1.1068,1.1087,1.1111,1.1138,1.1146,1.1158,1.1181,1.1196,1.1219,1.1229,1.1245,1.1258,1.1277,1.1278,1.1306,1.1299,1.1311,1.1321,1.1322,1.1324,1.1325,1.1328,1.1334,1.1336,1.1328,1.1328,1.1328,0,1.1059,1.1091,1.111,1.112,1.1152,1.1161,1.1175,1.1197,1.121,1.1231,1.1239,1.1262,1.1274,1.1292,1.1311,1.1309,1.1337,1.1339,1.1346,1.1346,1.1351,1.135,1.1359,1.1358,1.1358,1.1358,1.1358,0,1.1063,1.1077,1.1107,1.1118,1.1136,1.1156,1.1173,1.1188,1.1208,1.1224,1.124,1.1254,1.1278,1.1296,1.1311,1.1333,1.1338,1.1347,1.1351,1.1346,1.1345,1.1353,1.1353,1.1358,1.1358,1.1358,1.1358,0,1.1055,1.1075,1.1098,1.1126,1.1134,1.1146,1.1171,1.1184,1.12,1.122,1.1226,1.1251,1.1274,1.1294,1.1324,1.1334,1.1356,1.1361,1.1348,1.135,1.1357,1.1356,1.1372,1.1376,1.1371,1.1371,1.1371,0,1.1057,1.1068,1.1099,1.1111,1.1124,1.1143,1.1157,1.1178,1.1192,1.122,1.1229,1.1253,1.1273,1.1308,1.133,1.1353,1.1359,1.1363,1.1362,1.1357,1.136,1.1359,1.1361,1.1362,1.1362,1.1362,1.1362,0,1.1057,1.1067,1.1086,1.1109,1.1125,1.1144,1.1164,1.1173,1.1198,1.1213,1.1237,1.1252,1.1283,1.1307,1.1333,1.1349,1.136,1.1363,1.1366,1.136,1.1353,1.1358,1.1348,1.1362,1.1362,1.1362,1.1362,1.1362,1.1054,1.1066,1.109,1.1111,1.1128,1.1147,1.1161,1.1179,1.1199,1.1226,1.1238,1.1262,1.1286,1.1323,1.1338,1.1358,1.1361,1.1365,1.1366,1.1366,1.1366,1.135,1.1363,1.1363,1.1363,1.1363,1.1363,0,1.1055,1.1072,1.1092,1.1119,1.1137,1.1146,1.1169,1.1183,1.1204,1.1226,1.1246,1.1274,1.1298,1.1322,1.1347,1.1359,1.1365,1.1365,1.1364,1.1368,1.1362,1.1357,1.136,1.136,1.136,1.136,1.136,1.136,1.1058,1.1079,1.1092,1.1123,1.114,1.1163,1.1176,1.1194,1.1211,1.1242,1.1262,1.1278,1.1301,1.1329,1.1352,1.1358,1.1367,1.1366,1.1374,1.1368,1.1368,1.1368,1.1364,1.1368,1.1368,1.1379,1.1379,1.1379]},{"header":{"parameterUnit":"m.s-1","parameterCategory":1,"la1":30.2991,"la2":30.254,"lo1":-89.0895,"lo2":-89.0444,"dy":0.0017,"dx":0.0017,"nx":28,"ny":28,"refTime":"2024-03-10T03:00:00:Z","depth":0,"parameterNumber":3,"parameterNumberName":"V-component_of_WINDS"},"data":[0,0,0,0,0,0,0,0,0,0,0,0,0,0,0,0,0,0,0,0,0,0,0,0,0,0,0,0,0,0,0,0,0,0,0,0,0,0,0,0,0,0,0,0,0,0,0,0,0,0,0,0,0,0,0,0,0,0,-4.6872,-4.6873,0,-4.6928,-4.6928,-4.6929,-4.6951,-4.6951,-4.695,-4.695,-4.7003,-4.7004,-4.7006,0,0,0,0,0,0,0,0,0,0,0,0,0,-4.6783,-4.6784,-4.6872,-4.6873,-4.6874,-4.6927,-4.6928,-4.6929,-4.6951,-4.6951,-4.695,-4.695,-4.7002,-4.7004,-4.7006,0,0,0,0,0,0,0,0,0,0,0,0,0,-4.6828,-4.6785,-4.6872,-4.6891,-4.6893,-4.6927,-4.6928,-4.6929,-4.6951,-4.6951,-4.695,-4.695,-4.7001,-4.7004,-4.7006,-4.7024,0,0,-4.7013,-4.7014,0,0,0,0,0,0,0,0,-4.6826,-4.6831,-4.6887,-4.689,-4.6892,-4.6932,-4.6916,-4.6961,-4.6951,-4.6929,-4.695,-4.695,-4.6979,-4.6983,-4.6994,-4.7026,-4.7028,-4.7013,-4.7014,-4.7015,-4.7016,0,0,0,0,0,0,0,-4.6822,-4.6829,-4.6894,-4.6888,-4.6891,-4.6896,-4.6902,-4.6925,-4.6954,-4.6931,-4.6932,-4.6939,-4.698,-4.6991,-4.6995,-4.7029,-4.7013,-4.7015,-4.7016,-4.7017,-4.7082,-4.7082,0,0,0,0,0,0,-4.6817,-4.6826,-4.6892,-4.6896,-4.6858,-4.6898,-4.6905,-4.6919,-4.6954,-4.6959,-4.6939,-4.694,-4.6988,-4.6992,-4.6997,-4.7022,-4.7015,-4.7017,-4.7019,-4.7081,-4.7082,-4.7082,0,0,0,0,0,0,-4.6815,-4.6822,-4.689,-4.6862,-4.6871,-4.69,-4.6916,-4.6921,-4.6932,-4.696,-4.6965,-4.6945,-4.6988,-4.6994,-4.7018,-4.7024,-4.7019,-4.7021,-4.7081,-4.7082,-4.7082,-4.707,0,0,0,0,0,0,-4.6812,-4.6821,-4.6829,-4.6862,-4.6872,-4.691,-4.6916,-4.6922,-4.6936,-4.6938,-4.6968,-4.6972,-4.6988,-4.7014,-4.702,-4.7027,-4.7022,-4.7081,-4.7081,-4.7082,-4.707,-4.707,-4.707,0,0,0,0,0,-4.6809,-4.6822,-4.6829,-4.6837,-4.6882,-4.6911,-4.6916,-4.6936,-4.6937,-4.6944,-4.6963,-4.6971,-4.7023,-4.7017,-4.7023,-4.7031,-4.708,-4.7081,-4.7082,-4.707,-4.707,-4.707,0,0,0,0,0,0,-4.6786,-4.6826,-4.6835,-4.6859,-4.6882,-4.6914,-4.6924,-4.6935,-4.6956,-4.6956,-4.6978,-4.6985,-4.7007,-4.7021,-4.7014,-4.7051,-4.7052,-4.7054,-4.7041,-4.7041,-4.7041,-4.7037,-4.7024,0,0,0,0,0,-4.6784,-4.6805,-4.6839,-4.6857,-4.6868,-4.6894,-4.6907,-4.6921,-4.6944,-4.6953,-4.6974,-4.6995,-4.7017,-4.703,-4.7051,-4.7073,-4.708,-4.7081,-4.7081,-4.7081,-4.7082,-4.7097,-4.7098,-4.7085,-4.7085,-4.7085,0,0,-4.678,-4.6804,-4.6816,-4.6853,-4.6872,-4.6893,-4.6902,-4.6923,-4.6938,-4.6956,-4.6981,-4.6997,-4.7022,-4.7046,-4.7057,-4.7058,-4.7088,-4.7082,-4.7082,-4.7083,-4.7098,-4.7099,-4.71,-4.7085,-4.7085,-4.7085,0,0,-4.6782,-4.6803,-4.6821,-4.6841,-4.6871,-4.6889,-4.6894,-4.6926,-4.6938,-4.6964,-4.6978,-4.6997,-4.7032,-4.7051,-4.7065,-4.7078,-4.7087,-4.7085,-4.7084,-4.7098,-4.7099,-4.71,-4.7106,-4.7107,-4.7086,-4.7086,-4.7086,0,-4.6772,-4.6805,-4.6829,-4.685,-4.6867,-4.6887,-4.6905,-4.6923,-4.6957,-4.6968,-4.6969,-4.7017,-4.7035,-4.7064,-4.7068,-4.7079,-4.7084,-4.708,-4.7098,-4.7099,-4.71,-4.7106,-4.7107,-4.7085,-4.7086,-4.7086,-4.7086,0,-4.6792,-4.6815,-4.6826,-4.6862,-4.688,-4.6899,-4.6926,-4.6941,-4.6954,-4.6971,-4.6998,-4.7022,-4.7049,-4.7057,-4.7068,-4.7088,-4.7089,-4.7094,-4.7095,-4.7101,-4.7106,-4.7108,-4.7085,-4.7085,-4.7085,-4.7085,0,0,-4.6779,-4.6831,-4.6834,-4.6852,-4.6888,-4.6906,-4.6927,-4.6956,-4.6969,-4.6993,-4.7011,-4.7043,-4.7049,-4.7065,-4.7079,-4.7091,-4.7102,-4.7095,-4.7096,-4.7095,-4.7126,-4.7122,-4.7124,-4.7109,-4.7109,-4.7109,-4.7124,0,-4.6787,-4.6827,-4.6851,-4.6881,-4.6903,-4.6925,-4.6943,-4.6967,-4.6986,-4.7006,-4.7026,-4.7048,-4.7054,-4.7064,-4.7077,-4.7098,-4.7108,-4.7097,-4.7125,-4.7126,-4.7118,-4.7127,-4.7122,-4.7134,-4.7127,-4.7127,-4.7127,0,-4.68,-4.6827,-4.686,-4.6897,-4.6907,-4.6923,-4.6953,-4.6973,-4.7001,-4.7014,-4.7034,-4.7049,-4.7072,-4.7073,-4.7106,-4.7097,-4.7111,-4.7123,-4.7124,-4.7126,-4.7126,-4.7129,-4.7139,-4.7141,-4.7131,-4.713,-4.713,0,-4.6787,-4.6831,-4.6858,-4.6872,-4.6915,-4.6927,-4.6945,-4.6974,-4.699,-4.7016,-4.7027,-4.7054,-4.7069,-4.709,-4.7112,-4.711,-4.7143,-4.7145,-4.7153,-4.7153,-4.7158,-4.7157,-4.7169,-4.7167,-4.7167,-4.7167,-4.7167,0,-4.6793,-4.6812,-4.6853,-4.6869,-4.6893,-4.692,-4.6942,-4.6962,-4.6988,-4.7008,-4.7027,-4.7045,-4.7074,-4.7096,-4.7113,-4.7138,-4.7145,-4.7155,-4.7159,-4.7153,-4.7152,-4.7161,-4.716,-4.7168,-4.7168,-4.7168,-4.7167,0,-4.6781,-4.681,-4.684,-4.688,-4.6891,-4.6906,-4.694,-4.6957,-4.6977,-4.7003,-4.701,-4.7042,-4.7069,-4.7094,-4.7129,-4.7141,-4.7166,-4.7172,-4.7157,-4.7159,-4.7166,-4.7165,-4.7184,-4.7188,-4.7184,-4.7184,-4.7184,0,-4.6783,-4.6799,-4.6842,-4.6858,-4.6877,-4.6902,-4.692,-4.6948,-4.6966,-4.7002,-4.7014,-4.7044,-4.7068,-4.711,-4.7136,-4.7163,-4.717,-4.7175,-4.7173,-4.7167,-4.717,-4.7168,-4.717,-4.7174,-4.7174,-4.7173,-4.7173,0,-4.6782,-4.6796,-4.6822,-4.6855,-4.6877,-4.6903,-4.6929,-4.6941,-4.6974,-4.6994,-4.7023,-4.7043,-4.7081,-4.7109,-4.714,-4.7158,-4.7171,-4.7174,-4.7178,-4.7171,-4.7162,-4.7167,-4.7156,-4.7173,-4.7173,-4.7173,-4.7173,-4.7173,-4.6777,-4.6793,-4.6827,-4.6856,-4.688,-4.6906,-4.6924,-4.6949,-4.6974,-4.7009,-4.7024,-4.7054,-4.7084,-4.7128,-4.7146,-4.7169,-4.7172,-4.7176,-4.7178,-4.7178,-4.7177,-4.7159,-4.7175,-4.7175,-4.7175,-4.7175,-4.7175,0,-4.6777,-4.6801,-4.6828,-4.6867,-4.689,-4.6904,-4.6935,-4.6953,-4.698,-4.7008,-4.7033,-4.7068,-4.7097,-4.7126,-4.7156,-4.717,-4.7176,-4.7176,-4.7175,-4.7179,-4.7173,-4.7167,-4.7171,-4.7171,-4.7171,-4.7171,-4.7171,-4.7171,-4.678,-4.6809,-4.6828,-4.6869,-4.6893,-4.6924,-4.6941,-4.6964,-4.6987,-4.7026,-4.7051,-4.7071,-4.71,-4.7133,-4.7161,-4.7169,-4.7179,-4.7177,-4.7186,-4.7179,-4.718,-4.718,-4.7174,-4.7179,-4.7179,-4.7191,-4.7191,-4.7191]}]]